This is the latest recevied weather packets stored in our database for station/object KF0PEC-15. If no packets are shown the sender has not sent any weather packets the latest 10 day(s).
| Time | Temp. | Humidity | Pressure | Rain* | Wind** | Luminosity | Snow |
|---|---|---|---|---|---|---|---|
| 1777539160 | 2.78° C | 93% | 1027.7 hPa | 2.03 mm | - | 0 W/m² | - |
| 1777538615 | 2.78° C | 94% | 1027.2 hPa | 1.52 mm | - | 0 W/m² | - |
| 1777538017 | 2.78° C | 94% | 1027.3 hPa | 1.02 mm | - | 0 W/m² | - |
| 1777537490 | 2.78° C | 94% | 1027.4 hPa | 1.52 mm | - | 0 W/m² | - |
| 1777537005 | 2.78° C | 93% | 1027.3 hPa | 1.27 mm | - | 0 W/m² | - |
| 1777536460 | 2.78° C | 93% | 1027.5 hPa | 1.27 mm | - | 0 W/m² | - |
| 1777535895 | 2.78° C | 93% | 1027.6 hPa | 1.52 mm | - | 0 W/m² | - |
| 1777535385 | 3.33° C | 93% | 1027.5 hPa | 1.27 mm | - | 0 W/m² | - |
| 1777534857 | 2.78° C | 93% | 1027.6 hPa | 1.52 mm | - | 0 W/m² | - |
| 1777534290 | 2.78° C | 93% | 1027.6 hPa | 1.02 mm | - | 0 W/m² | - |
| 1777533715 | 3.33° C | 93% | 1027.5 hPa | 0.76 mm | - | 0 W/m² | - |
| 1777533168 | 2.78° C | 93% | 1027.7 hPa | 1.52 mm | - | 0 W/m² | - |
| 1777532585 | 3.33° C | 93% | 1027.6 hPa | 1.78 mm | - | 0 W/m² | - |
| 1777532070 | 3.33° C | 93% | 1027.5 hPa | 1.52 mm | - | 0 W/m² | - |
| 1777531550 | 3.33° C | 93% | 1027.5 hPa | 1.52 mm | - | 0 W/m² | - |
| 1777530955 | 3.33° C | 93% | 1027.1 hPa | 1.52 mm | - | 0 W/m² | - |
| 1777530445 | 3.89° C | 93% | 1027 hPa | 1.27 mm | - | 0 W/m² | - |
| 1777529915 | 3.89° C | 93% | 1026.8 hPa | 1.02 mm | - | 0 W/m² | - |
| 1777529330 | 3.89° C | 94% | 1026.6 hPa | 0.76 mm | - | 0 W/m² | - |
| 1777528820 | 3.89° C | 94% | 1026.6 hPa | 0.25 mm | - | 0 W/m² | - |
| 1777528340 | 3.89° C | 94% | 1026.7 hPa | 0 mm | - | 0 W/m² | - |
| 1777527765 | 3.89° C | 93% | 1026.8 hPa | 0 mm | - | 0 W/m² | - |
| 1777527190 | 3.89° C | 93% | 1026.8 hPa | 0 mm | - | 0 W/m² | - |
| 1777526705 | 3.89° C | 93% | 1027.1 hPa | 0.51 mm | - | 0 W/m² | - |
| 1777526185 | 3.89° C | 93% | 1027 hPa | 0.76 mm | - | 0 W/m² | - |
* Rain latest hour (hover to see other rain measurements)
** Current wind speed in m/s (hover to see current wind gust speed)